CZ-4C DEB, 43601

Orbit data source: Space-Track

CZ-4C DEB, 43601 is space debris in SSO originally from a launch on Tue, 09 Aug 2016 UTC launched from the Taiyaun Space Center, China (TSC). Debris objects in space refer to the collection of defunct objects orbiting the Earth. Examples of debris include non-operational satellites, rocket bodies, and fragments generated from explosions, collisions, or faulty payload assembly.

Loading next visibility...
Identifier
43601, 2016-049F
Orbit
SSO
Country
Flag of CNCN / PRC
Related business
Manufacturer
Unknown
Mission
Spacecraft
Bus & Motor
Unknown
Mass
Unknown
Launch date (UTC)
2016-08-09 (9 years ago)
Launch vehicle
Unknown
Launch site
Taiyaun Space Center, China (TSC)
Object type
Payload
Rocket body
Debris
Shape & HBR
Unknown shape, 0.1 m
Radar Cross Section
Small (<0.1 m²)

Expand to show TLE details & history
Last TLE update: 12 hours ago

TLE from 12 hours ago
0 CZ-4C DEB
1 43601U 16049F   25341.31298409  .00027399  00000-0  23870-2 0  9997
2 43601  98.3195 106.6339 0071913 106.4504 254.4634 14.94853292603914
Epoch: 2025-12-07T07:30Z
TLE epoch observation values (Epoch: 2025-12-07T07:30:41.825Z)
Latitude
0.00002°
Longitude
-82.36854°
Altitude
599.602 km
Speed
7.552 km/s
True Right ascension
07h 06m 32s
True Declination
0° 00' 00"
Sunlit
Object was in full shadow at epoch
Visualization orbit readout
Latitude
Unknown
Longitude
Unknown
Altitude
Unknown
Speed
Unknown
Apparent Right ascension
Unknown
Apparent Declination
Unknown
Sunlit
N/A
Visualization observer readout
Local Sidereal Time
17:25:11
Azimuth
Unknown
Elevation
Unknown
Doppler factor
Unknown
Orbital elements
Apogee altitude
629.905 km
Perigee altitude
529.831 km
Semi-major axis
6,958.005 km
Eccentricity
0.00719
Inclination
98.3195°
RAAN
106.6339°
Arg. of periapsis
106.4504°
True anomaly
253.67138°
Mean anomaly
254.4634°
Eccentric anomaly
254.0672°
Mean motion
3.73952 °/min
Orbital period
96.27 mins
BSTAR
0.002387
Loading maneuver chart data...
Computing Atmospheric mass density...
Loading historical data...
Loading historical data...
Loading historical data...
Loading historical data...
Loading historical data...
Loading historical data...
Loading historical data...
Other satellites on launch #49 in the year 2016 (2016-08-09 UTC)

Documentation

Showing up to 5 results
|